Regional Weather Roundup
Issued by NWS

Current Version | Previous Version | Text Only | Print | Product List | Glossary On
Versions: 1 2 3 4 5 6 7 8 9 10 11 12 13 14 15 16 17 18 19 20 21 22 23 24 25 26 27 28 29 30 31 32 33 34 35 36 37 38 39 40 41 42 43 44 45 46 47 48 49 50
000
ASUS44 KMEG 290810
RWRTN
TENNESSEE HOURLY STATE WEATHER ROUNDUP
NATIONAL WEATHER SERVICE MEMPHIS TN
200 AM CST SAT NOV 29 2014

TNZ002-004-019-021-049-052-054-088>092-290900-
WEST TENNESSEE

CITY           SKY/WX    TMP DP  RH WIND       PRES   REMARKS
MEMPHIS INTL   MOCLDY    53  33  46 S14       30.07F
NWS MEMPHIS      N/A     47 N/A N/A MISG        N/A
JACKSON        PTCLDY    46  28  49 S9        30.08F
DYERSBURG      CLOUDY    46  25  42 S7        30.05F
UNION CITY     CLOUDY    41  28  60 S8        30.03S
PARIS          PTCLDY    41  27  56 S9        30.06F
HUNTINGDON     MOCLDY    42  24  49 S7        30.07
LEXINGTON      CLEAR     43  27  52 S8        30.10S
SAVANNAH       CLEAR     45  27  49 S10       30.13S
$$

TNZ008-025-027-028-033-062-065-066-290900-
NORTH MIDDLE TENNESSEE

CITY           SKY/WX    TMP DP  RH WIND       PRES   REMARKS
NASHVILLE      PTCLDY    42  23  46 S12       30.15R
CLARKSVILLE    CLEAR     42  25  50 S10       30.08S
COOKEVILLE     CLEAR     36  21  55 S7        30.13F WCI  30
CROSSVILLE     CLEAR     40  16  37 S8G17     30.15S WCI  34
$$

TNZ061-075-076-078-094-096-097-290900-
SOUTH MIDDLE TENNESSEE

CITY           SKY/WX    TMP DP  RH WIND       PRES   REMARKS
FAYETTEVILLE   CLEAR     37  19  48 MISG      30.17R
TULLAHOMA      CLEAR     37  19  48 S6        30.17S WCI  33
WINCHESTER     CLEAR     37  21  52 SE8       30.19S WCI  31
MCMINNVILLE    CLEAR     39  19  45 CALM      30.16S
COLUMBIA       CLEAR     43  27  52 S9        30.12S
SHELBYVILLE    CLEAR     39  21  48 S9        30.17S WCI  33
$$

TNZ017-018-042-046-047-290900-
NORTHEAST TENNESSEE

CITY           SKY/WX    TMP DP  RH WIND       PRES   REMARKS
TRI CITIES     PTCLDY    24  22  91 CALM      30.21R
ELIZABETHTON   SUNNY     27  21  80 CALM      30.20S
$$

TNZ012-013-036-069-073-074-290900-
CENTRAL EAST TENNESSEE

CITY           SKY/WX    TMP DP  RH WIND       PRES   REMARKS
KNOXVILLE      PTCLDY    29  24  82 CALM      30.21R
OAK RIDGE      CLEAR     33  20  58 W3        30.22R
GATLINBURG     SUNNY     25  21  86 CALM      30.21R
MORRISTOWN     SUNNY     28  21  74 CALM      30.20R
$$

TNZ083-085-099-290900-
SOUTHEAST TENNESSEE

CITY           SKY/WX    TMP DP  RH WIND       PRES   REMARKS
CHATTANOOGA    CLEAR     30  23  75 CALM      30.23S
$$

SKY/WX REPORTED AS FAIR MEANS FEW OR NO CLOUDS BELOW
12 THOUSAND FEET.



USA.gov is the U.S. government's official web portal to all federal, state and local government web resources and services.